Stations météo

Publicité
Pertusato, France (7770): Température de l'air & dewpoint: 18.01.2021 06:00:00 - 24.01.2021 06:00:00 (CET)Pertusato, France (7770): Vitesse du vent & gusts: 18.01.2021 06:00:00 - 24.01.2021 06:00:00 (CET)Pertusato, France (7770): Direction du vent: 18.01.2021 06:00:00 - 24.01.2021 06:00:00 (CET)Pertusato, France (7770): reduced air pressure: 18.01.2021 06:00:00 - 24.01.2021 06:00:00 (CET)Pertusato, France (7770): visibility: 18.01.2021 06:00:00 - 24.01.2021 06:00:00 (CET)Pertusato, France (7770): Quantités de précipitations: 18.01.2021 06:00:00 - 24.01.2021 06:00:00 (CET)
Date & Time tt [°C] td [°C] ff [km/h] ff [knt] fx [km/h] fx [knt] dd ppp [hPa] vv [km] rr [mm]
24.01.2021 06:00:00 12,0 10,9 27 15 105 57 WSW 995,5 - 3,1
24.01.2021 05:00:00 12,2 10,6 34 18 93 50 WSW 996,3 - 4,6
24.01.2021 04:00:00 12,5 9,3 36 19 103 55 W 998,2 - 0,4
24.01.2021 03:00:00 12,5 9,3 39 21 105 57 WSW 999,1 - 0,0
24.01.2021 02:00:00 12,6 9,1 47 26 109 59 WSW 998,9 - 0,0
24.01.2021 01:00:00 12,8 8,9 44 24 103 56 W 999,9 8 0,0
24.01.2021 00:00:00 13,1 8,0 35 19 106 57 W 1001,0 - 0,0
23.01.2021 23:00:00 13,0 7,2 38 20 106 57 W 1000,5 - 0,0
23.01.2021 22:00:00 13,0 7,4 41 22 119 64 W 1001,1 - 0,0
23.01.2021 21:00:00 12,9 6,5 58 32 114 61 W 1000,5 - 0,0
23.01.2021 20:00:00 12,7 6,5 54 29 116 63 W 1000,9 - 0,0
23.01.2021 19:00:00 12,5 7,0 44 24 103 56 W 1002,7 - 0,0
23.01.2021 18:00:00 12,5 7,4 48 26 98 53 W 1003,6 - 0,0
23.01.2021 17:00:00 12,4 7,9 43 23 111 60 W 1003,8 - 0,0
23.01.2021 16:00:00 12,4 7,1 33 18 93 50 W 1002,5 - 0,0
23.01.2021 15:00:00 12,3 7,0 35 19 100 54 W 1003,4 - 0,0
23.01.2021 14:00:00 12,6 6,4 75 41 118 64 W 1002,2 - 0,0
23.01.2021 13:00:00 12,2 6,7 78 42 125 67 W 1001,4 - 0,0
23.01.2021 12:00:00 12,0 5,8 91 49 130 70 W 1001,7 - 0,0
23.01.2021 11:00:00 12,0 5,8 89 48 130 70 W 1001,0 - 0,0
23.01.2021 10:00:00 11,9 6,2 90 48 128 69 W 1000,1 8 0,0
23.01.2021 09:00:00 11,5 6,0 85 46 122 66 W 999,3 - 0,0
23.01.2021 08:00:00 11,3 5,6 81 44 131 71 W 999,7 - 0,0
23.01.2021 07:00:00 11,1 6,0 81 44 129 70 W 999,2 10 0,0
23.01.2021 06:00:00 10,9 4,8 90 48 137 74 W 997,9 - 0,0
23.01.2021 05:00:00 11,1 5,0 89 48 136 73 W 997,8 - 0,0
23.01.2021 04:00:00 10,9 3,7 91 49 141 76 W 997,1 10 0,0
23.01.2021 03:00:00 11,2 5,7 89 48 141 76 W 997,6 - 0,2
23.01.2021 02:00:00 11,4 5,3 82 44 121 65 W 998,6 - 0,0
23.01.2021 01:00:00 11,3 5,4 71 38 113 61 W 999,5 8 0,0
23.01.2021 00:00:00 11,5 6,0 69 37 111 60 W 999,9 - 0,0
22.01.2021 23:00:00 12,0 7,1 37 20 91 49 W 999,2 - 0,0
22.01.2021 22:00:00 11,3 8,5 30 16 104 56 W 999,4 8 1,1
22.01.2021 21:00:00 10,6 8,7 55 30 105 57 W 998,9 - 4,1
22.01.2021 20:00:00 13,0 8,9 27 15 89 48 SW 997,9 - 0,0
22.01.2021 19:00:00 12,9 9,9 25 13 96 52 WSW 999,8 10 0,0
22.01.2021 18:00:00 12,7 9,1 40 22 126 68 WSW 999,0 - 0,0
22.01.2021 17:00:00 13,8 11,0 25 14 87 47 SW 998,2 - 2,0
22.01.2021 16:00:00 14,4 10,8 22 12 68 37 SSW 999,8 10 0,2
22.01.2021 15:00:00 14,3 11,6 14 8 58 31 SW 1002,1 - 0,4
22.01.2021 14:00:00 14,8 10,8 17 9 48 26 SW 1002,9 - 0,0
22.01.2021 13:00:00 14,6 11,4 22 12 48 26 SW 1004,8 10 0,0
22.01.2021 12:00:00 14,7 11,1 17 9 41 22 SW 1006,3 - 0,0
22.01.2021 11:00:00 14,5 11,5 23 12 57 31 SW 1007,6 - 0,0
22.01.2021 10:00:00 14,1 11,4 31 17 64 35 WSW 1007,7 10 0,0
22.01.2021 09:00:00 13,8 11,8 27 14 72 39 WSW 1007,9 - 0,0
22.01.2021 08:00:00 13,7 11,7 25 14 64 35 SW 1007,6 - 0,0
22.01.2021 07:00:00 13,5 12,1 29 15 70 38 WSW 1008,5 11 0,0
22.01.2021 06:00:00 13,6 12,0 37 20 77 42 WSW 1008,8 - 0,0
22.01.2021 05:00:00 13,6 11,6 38 20 79 43 WSW 1009,4 - 0,0
22.01.2021 04:00:00 13,7 11,6 24 13 67 36 WSW 1009,9 - 0,0
22.01.2021 03:00:00 13,6 11,6 29 16 67 36 WSW 1011,0 - 0,0
22.01.2021 02:00:00 13,5 11,5 35 19 65 35 WSW 1011,7 - 0,0
22.01.2021 01:00:00 13,4 10,9 29 16 60 32 WSW 1012,1 - 0,0
22.01.2021 00:00:00 13,5 10,8 32 17 67 36 WSW 1012,6 - 0,0
21.01.2021 23:00:00 13,4 11,3 31 17 64 34 WSW 1013,3 - 0,0
21.01.2021 22:00:00 13,5 11,4 28 15 55 30 WSW 1013,6 15 0,0
21.01.2021 21:00:00 13,4 11,5 33 18 62 33 WSW 1013,8 - 0,0
21.01.2021 20:00:00 13,6 11,3 31 17 53 28 WSW 1014,1 - 0,0
21.01.2021 19:00:00 13,6 10,4 9 5 44 24 SW 1014,2 12 0,0
21.01.2021 18:00:00 14,0 11,0 21 12 38 21 SW 1014,1 - 0,0
21.01.2021 17:00:00 14,0 10,6 15 8 44 24 WSW 1014,1 - 0,0
21.01.2021 16:00:00 14,1 10,5 29 15 55 30 WSW 1013,9 - 0,0
21.01.2021 15:00:00 14,2 10,6 32 18 61 33 WSW 1013,6 - 0,0
21.01.2021 14:00:00 14,1 11,8 19 10 52 28 WSW 1013,8 - 0,2
21.01.2021 13:00:00 14,6 10,8 29 16 48 26 WSW 1014,2 - 0,0
21.01.2021 12:00:00 14,2 7,3 9 5 22 12 W 1015,3 - 0,0
21.01.2021 11:00:00 14,6 5,7 6 3 10 6 WSW 1015,7 - 0,0
21.01.2021 10:00:00 13,6 6,5 4 2 13 7 SW 1015,6 20 0,0
21.01.2021 09:00:00 11,5 6,4 4 2 11 6 W 1015,3 - 0,0
21.01.2021 08:00:00 10,5 8,6 9 5 16 8 E 1015,1 - 0,0
21.01.2021 07:00:00 10,6 8,2 14 7 16 9 E 1014,4 12 0,0
21.01.2021 06:00:00 11,0 5,5 4 2 13 7 N 1014,3 - 0,0
21.01.2021 05:00:00 10,3 8,1 8 5 14 8 NNE 1014,3 - 0,0
21.01.2021 04:00:00 9,9 8,3 10 6 19 10 NE 1014,7 - 0,0
21.01.2021 03:00:00 10,0 8,6 13 7 20 11 ENE 1014,9 - 0,0
21.01.2021 02:00:00 10,1 8,9 13 7 23 12 ENE 1015,0 - 0,0
21.01.2021 01:00:00 9,9 8,7 15 8 26 14 NE 1015,6 - 0,0
21.01.2021 00:00:00 10,2 9,0 20 11 29 16 ENE 1016,2 - 0,0
20.01.2021 23:00:00 10,0 8,6 21 11 29 16 NE 1016,4 - 0,0
20.01.2021 22:00:00 10,0 8,6 20 11 30 16 NE 1017,0 15 0,0
20.01.2021 21:00:00 10,2 8,8 16 9 27 14 NE 1017,8 - 0,0
20.01.2021 20:00:00 10,1 8,5 16 9 28 15 ENE 1018,1 - 0,0
20.01.2021 19:00:00 10,3 8,6 16 9 28 15 E 1018,1 12 0,0
20.01.2021 18:00:00 10,4 8,0 16 9 26 14 E 1018,3 - 0,0
20.01.2021 17:00:00 11,1 6,8 15 8 31 17 E 1018,3 - 0,0
20.01.2021 16:00:00 13,2 7,0 18 10 28 15 ENE 1018,8 - 0,0
20.01.2021 15:00:00 14,6 6,7 13 7 23 13 E 1019,6 - 0,0
20.01.2021 14:00:00 15,0 6,5 13 7 24 13 ENE 1019,8 - 0,0
20.01.2021 13:00:00 15,2 5,4 9 5 15 8 E 1020,4 - 0,0
20.01.2021 12:00:00 14,5 5,3 8 4 17 9 E 1021,5 - 0,0
20.01.2021 11:00:00 13,9 7,6 10 6 17 9 E 1022,2 - 0,0
20.01.2021 10:00:00 12,5 8,0 9 5 13 7 ESE 1022,6 23 0,0
20.01.2021 09:00:00 9,5 7,3 10 6 12 7 ENE 1022,4 - 0,0
20.01.2021 08:00:00 8,6 5,5 0 0 8 4 N 1022,8 - 0,0
20.01.2021 07:00:00 9,5 6,0 3 1 15 8 NNE 1023,1 14 0,0
20.01.2021 06:00:00 10,3 5,9 5 3 18 10 NE 1022,6 - 0,0
20.01.2021 05:00:00 10,7 5,7 9 5 31 17 S 1022,6 - 0,0
20.01.2021 04:00:00 11,3 7,0 12 7 39 21 SSW 1023,0 - 0,0
20.01.2021 03:00:00 11,5 7,8 10 5 37 20 SSE 1023,5 - 0,0
20.01.2021 02:00:00 11,5 8,4 10 5 37 20 ENE 1023,6 - 0,0
20.01.2021 01:00:00 11,7 8,7 11 6 41 22 NE 1023,8 15 0,0
20.01.2021 00:00:00 11,7 9,1 10 5 35 19 N 1024,5 - 0,0
19.01.2021 23:00:00 11,7 8,9 10 5 39 21 N 1025,0 - 0,0
19.01.2021 22:00:00 10,8 7,7 15 8 26 14 W 1025,0 - 0,0
19.01.2021 21:00:00 10,4 7,1 19 10 29 15 WNW 1025,0 - 0,0
19.01.2021 20:00:00 10,4 6,9 18 10 32 17 W 1025,0 - 0,0
19.01.2021 19:00:00 10,5 6,4 22 12 37 20 W 1024,9 18 0,0
19.01.2021 18:00:00 10,7 6,6 25 13 45 24 WNW 1024,7 - 0,0
19.01.2021 17:00:00 11,1 6,6 36 19 61 33 W 1024,4 - 0,0
19.01.2021 16:00:00 11,8 6,3 46 25 63 34 W 1024,0 - 0,0
19.01.2021 15:00:00 11,6 5,9 32 17 58 31 W 1023,9 - 0,0
19.01.2021 14:00:00 11,6 5,7 35 19 60 33 W 1024,2 - 0,0
19.01.2021 13:00:00 11,6 4,8 25 14 39 21 W 1025,2 - 0,0
19.01.2021 12:00:00 12,3 5,7 17 9 31 17 W 1025,9 - 0,0
19.01.2021 11:00:00 11,9 7,2 5 3 17 9 WSW 1026,6 - 0,0
19.01.2021 10:00:00 10,6 7,5 4 2 11 6 NE 1026,6 21 0,0
19.01.2021 09:00:00 8,1 6,1 8 5 13 7 NE 1026,0 - 0,0
19.01.2021 08:00:00 8,0 5,8 9 5 14 8 E 1025,7 - 0,0
19.01.2021 07:00:00 7,5 5,1 10 5 14 7 ENE 1025,7 12 0,0
19.01.2021 06:00:00 6,6 3,9 8 4 11 6 NE 1025,1 - 0,0
19.01.2021 05:00:00 7,9 3,9 6 4 23 12 NE 1025,1 - 0,0
19.01.2021 04:00:00 9,5 5,7 6 3 23 13 SE 1024,8 - 0,0
19.01.2021 03:00:00 10,1 5,7 8 4 29 15 WNW 1025,0 - 0,0
19.01.2021 02:00:00 9,9 5,9 10 5 33 18 S 1025,0 - 0,0
19.01.2021 01:00:00 9,6 5,0 6 4 32 17 NE 1024,9 - 0,0
19.01.2021 00:00:00 9,6 4,8 8 4 34 19 E 1025,1 - 0,0
18.01.2021 23:00:00 10,1 5,1 10 5 44 24 SSE 1025,1 - 0,0
18.01.2021 22:00:00 10,8 6,5 16 9 48 26 SSW 1024,7 - 0,0
18.01.2021 21:00:00 11,1 6,2 9 5 32 17 NW 1024,8 - 0,0
18.01.2021 20:00:00 11,4 6,9 11 6 28 15 NW 1024,3 - 0,0
18.01.2021 19:00:00 11,1 6,6 8 4 18 10 SW 1024,2 14 0,0
18.01.2021 18:00:00 10,9 6,2 6 3 18 10 N 1023,8 - 0,0
18.01.2021 17:00:00 11,3 5,8 6 3 20 11 N 1023,5 - 0,0
18.01.2021 16:00:00 12,1 5,7 6 4 19 10 WNW 1023,3 - 0,0
18.01.2021 15:00:00 12,6 5,5 9 5 18 10 WSW 1023,1 - 0,0
18.01.2021 14:00:00 13,0 5,6 9 5 19 10 SSE 1023,2 - 0,0
18.01.2021 13:00:00 12,5 5,6 11 6 19 10 SE 1023,6 16 0,0
18.01.2021 12:00:00 12,3 6,1 9 5 21 11 SE 1024,0 - 0,0
18.01.2021 11:00:00 11,6 6,7 10 5 19 11 E 1024,5 - 0,0
18.01.2021 10:00:00 10,9 6,8 11 6 19 11 ENE 1023,7 16 0,0
18.01.2021 09:00:00 8,2 6,0 14 7 23 12 NE 1023,0 - 0,0
18.01.2021 08:00:00 6,8 4,8 12 7 18 10 NE 1022,7 - 0,0
18.01.2021 07:00:00 6,7 4,7 15 8 23 12 NE 1021,9 14 0,0
18.01.2021 06:00:00 6,8 4,6 18 10 24 13 NE 1021,1 - 0,0

tt = Température de l'air
td = dewpoint
ff = Vitesse du vent
fx = gusts
dd = Direction du vent
ppp = reduced air pressure
vv = visibility
rr = Quantités de précipitations

stations d'obs. à proximité